Find Starlink 31016

NORAD ID: 58548 Int'l Des: 2023-192 Owner: SPXS Country: US Constellation: starlink operational
LEOCIRCULAR

現在のビュー

3D地球を読み込み中...

About Starlink 31016

Starlink 31016 (NORAD 58548) is a starlink constellation satellite (v2 mini) launched Dec 8, 2023 by SPXS of US. It operates in LEO, CIRCULAR orbit with a mass of 730.00 kg.

Starlink 31016について

説明を読み込み中...

次回通過

Passes for default location (London). Set your location on the main map for personalized predictions.

高度履歴

Loading altitude history...

軌道要素

1 58548U 23192T 26171.33332843 .00000225 00000-0 19737-4 0 9993
2 58548 53.1633 305.7123 0001532 116.7639 243.3519 15.30196530141701
Epoch: Jun 20, 2026 • Age: 23 hours

現在のステータス

高度 474.9 km
速度 7.63 km/s
衛星直下点 6.64°N, 106.48°E
打ち上げ日 Dec 8, 2023
運用期間 2.5 years
タイプ internet

技術仕様

分類 Payload
質量 730.00 kg
乾燥質量 700.00 kg
総質量 730.00 kg
長さ 0.30 m
直径 4.10 m
スパン 29.00 m
形状 Box + pan
製造者 SPXS
バスタイプ Starlink V2M
フェーズステータス In Orbit
所有者/国 SPXS/US

Most Searched